Torna al catalogo

COSMOS 1275 DEB

AttivoPO
NORAD 13488·DEBRIS·🇷🇺 Russia

Lanciato Jun 4, 1981 da Plesetsk Cosmodrome

Loading…

Prossimi Passaggi (prossime 24 ore)

TLE

AggiornatoSource: Space-Track

Epoca: Sep 14, 2026, 15:16 UTC

1 13488U 81053GJ  26257.63620301  .00000787  00000-0  11027-2 0  9999
2 13488  83.0867  24.5447 0191771 229.7316 143.3462 13.49087534164390

Traccia COSMOS 1275 DEB in tempo reale con AllMySat

Download on the App Store